Total_Precipitation_Accumulation
0.00 0.00 0.00 0.00 0.00 0.00 0.00 0.00 0.01 0.01 0.01 0.01 0.01 0.02 0.04 0.06 0.08 0.10 0.09 0.11 0.14 0.16 0.19 0.23 0.23 0.26 0.29 0.26 0.30 0.33 0.34 0.41 0.40 0.10 0.04 0.05 0.15 0.22 0.20 0.15 0.15 0.16 0.15
0.00 0.00 0.00 0.00 0.00 0.00 0.00 0.00 0.00 0.01 0.01 0.01 0.01 0.04 0.07 0.11 0.13 0.14 0.14 0.13 0.17 0.19 0.21 0.25 0.27 0.26 0.28 0.26 0.29 0.30 0.27 0.26 0.32 0.20 0.06 0.05 0.11 0.19 0.27 0.27 0.22 0.20 0.18
0.00 0.00 0.00 0.00 0.00 0.00 0.00 0.00 0.00 0.01 0.01 0.01 0.02 0.05 0.14 0.21 0.20 0.16 0.19 0.20 0.20 0.21 0.24 0.27 0.27 0.27 0.27 0.24 0.28 0.28 0.23 0.21 0.26 0.29 0.15 0.08 0.12 0.15 0.26 0.36 0.31 0.27 0.24
0.00 0.00 0.00 0.00 0.00 0.00 0.00 0.00 0.00 0.01 0.01 0.01 0.02 0.04 0.15 0.33 0.36 0.28 0.32 0.31 0.25 0.21 0.18 0.18 0.25 0.34 0.34 0.32 0.36 0.30 0.27 0.31 0.35 0.41 0.30 0.18 0.18 0.19 0.29 0.41 0.45 0.41 0.34
0.00 0.00 0.00 0.00 0.00 0.00 0.00 0.00 0.00 0.01 0.01 0.01 0.02 0.02 0.08 0.42 0.79 0.74 0.67 0.49 0.29 0.18 0.11 0.11 0.19 0.33 0.39 0.53 0.65 0.56 0.55 0.64 0.63 0.64 0.56 0.44 0.37 0.39 0.43 0.43 0.58 0.57 0.49
0.00 0.00 0.00 0.00 0.00 0.00 0.00 0.00 0.01 0.01 0.01 0.02 0.02 0.02 0.04 0.30 0.83 0.91 0.68 0.37 0.22 0.16 0.13 0.09 0.12 0.24 0.28 0.36 0.52 0.64 0.74 0.89 0.94 0.93 0.88 0.77 0.55 0.48 0.47 0.57 0.65 0.78 0.75
0.00 0.00 0.00 0.00 0.00 0.00 0.00 0.01 0.01 0.01 0.02 0.02 0.02 0.02 0.02 0.17 0.67 0.78 0.48 0.26 0.17 0.14 0.10 0.09 0.10 0.18 0.25 0.32 0.38 0.42 0.49 0.65 0.88 1.01 1.05 0.76 0.58 0.50 0.62 0.77 0.77 0.85 0.81
0.00 0.00 0.00 0.00 0.00 0.00 0.00 0.01 0.01 0.02 0.02 0.02 0.02 0.02 0.01 0.08 0.51 0.65 0.37 0.21 0.13 0.10 0.06 0.07 0.08 0.12 0.25 0.46 0.48 0.43 0.38 0.45 0.66 0.88 1.09 0.93 0.75 0.74 0.97 1.22 1.29 1.19 0.88
0.00 0.00 0.00 0.00 0.00 0.00 0.01 0.01 0.02 0.03 0.02 0.02 0.02 0.01 0.01 0.02 0.30 0.54 0.36 0.19 0.12 0.08 0.04 0.05 0.08 0.12 0.26 0.52 0.57 0.45 0.32 0.31 0.39 0.66 0.94 1.08 1.07 1.12 1.29 1.61 1.74 1.57 1.18
0.00 0.00 0.00 0.00 0.00 0.01 0.01 0.02 0.02 0.02 0.02 0.02 0.02 0.01 0.01 0.01 0.14 0.38 0.40 0.23 0.13 0.08 0.07 0.06 0.11 0.24 0.37 0.53 0.53 0.50 0.57 0.44 0.37 0.39 0.45 0.57 0.69 0.78 1.00 1.34 1.56 1.57 1.29
0.00 0.00 0.00 0.00 0.00 0.01 0.02 0.02 0.02 0.03 0.03 0.02 0.02 0.01 0.01 0.01 0.05 0.21 0.39 0.32 0.22 0.17 0.16 0.12 0.10 0.25 0.38 0.47 0.56 0.57 0.74 0.69 0.53 0.51 0.46 0.43 0.44 0.55 0.72 1.02 1.38 1.57 1.49
0.00 0.00 0.00 0.00 0.01 0.02 0.03 0.03 0.03 0.03 0.03 0.03 0.02 0.02 0.01 0.01 0.05 0.16 0.29 0.32 0.32 0.24 0.18 0.12 0.12 0.25 0.36 0.46 0.48 0.53 0.60 0.58 0.51 0.45 0.38 0.35 0.39 0.46 0.56 0.74 1.06 1.28 1.30
0.00 0.00 0.00 0.01 0.01 0.03 0.03 0.04 0.04 0.04 0.06 0.05 0.04 0.03 0.02 0.02 0.08 0.18 0.18 0.19 0.28 0.26 0.18 0.20 0.25 0.31 0.33 0.25 0.25 0.35 0.41 0.41 0.50 0.49 0.38 0.33 0.37 0.48 0.53 0.59 0.74 1.02 1.18
0.00 0.00 0.01 0.01 0.02 0.03 0.04 0.04 0.05 0.08 0.15 0.11 0.08 0.07 0.06 0.06 0.20 0.30 0.21 0.15 0.21 0.28 0.28 0.25 0.28 0.26 0.21 0.15 0.13 0.16 0.20 0.30 0.46 0.53 0.42 0.32 0.31 0.38 0.50 0.62 0.73 0.90 1.12
0.00 0.01 0.01 0.02 0.03 0.04 0.04 0.04 0.06 0.07 0.17 0.20 0.16 0.17 0.20 0.26 0.35 0.41 0.37 0.30 0.30 0.34 0.44 0.48 0.35 0.26 0.23 0.19 0.14 0.11 0.13 0.20 0.28 0.32 0.36 0.36 0.34 0.36 0.42 0.55 0.76 0.91 1.06
0.00 0.01 0.02 0.03 0.04 0.04 0.05 0.04 0.05 0.05 0.08 0.09 0.12 0.16 0.16 0.26 0.33 0.33 0.34 0.32 0.34 0.39 0.50 0.52 0.33 0.22 0.21 0.20 0.20 0.17 0.13 0.14 0.18 0.24 0.30 0.35 0.39 0.41 0.43 0.47 0.63 0.85 1.01
0.00 0.01 0.02 0.03 0.04 0.04 0.05 0.06 0.06 0.04 0.04 0.04 0.06 0.09 0.14 0.19 0.23 0.26 0.29 0.29 0.29 0.32 0.38 0.30 0.21 0.19 0.20 0.19 0.20 0.20 0.17 0.13 0.17 0.22 0.25 0.28 0.34 0.39 0.41 0.44 0.51 0.67 0.86
0.01 0.02 0.03 0.04 0.05 0.05 0.05 0.06 0.08 0.09 0.08 0.04 0.03 0.05 0.10 0.15 0.18 0.21 0.26 0.30 0.25 0.20 0.23 0.24 0.21 0.19 0.20 0.21 0.21 0.21 0.19 0.16 0.18 0.19 0.20 0.22 0.28 0.36 0.38 0.39 0.44 0.58 0.74
0.01 0.02 0.03 0.04 0.05 0.05 0.06 0.07 0.09 0.10 0.10 0.07 0.05 0.05 0.08 0.12 0.15 0.17 0.23 0.31 0.28 0.21 0.19 0.19 0.19 0.20 0.21 0.21 0.21 0.21 0.21 0.20 0.17 0.18 0.19 0.19 0.21 0.28 0.31 0.32 0.38 0.48 0.63
0.01 0.02 0.04 0.05 0.05 0.06 0.07 0.10 0.12 0.13 0.13 0.12 0.11 0.11 0.19 0.29 0.30 0.23 0.23 0.26 0.25 0.21 0.18 0.19 0.18 0.19 0.21 0.23 0.23 0.22 0.22 0.19 0.17 0.17 0.16 0.15 0.16 0.21 0.25 0.27 0.32 0.40 0.49
0.01 0.02 0.04 0.05 0.06 0.08 0.11 0.14 0.16 0.19 0.20 0.17 0.13 0.13 0.31 0.49 0.40 0.26 0.22 0.22 0.24 0.24 0.24 0.24 0.22 0.20 0.20 0.21 0.23 0.22 0.22 0.18 0.16 0.15 0.15 0.14 0.14 0.17 0.18 0.22 0.27 0.33 0.41
0.01 0.02 0.05 0.08 0.10 0.11 0.14 0.17 0.20 0.22 0.21 0.20 0.17 0.14 0.21 0.29 0.29 0.27 0.23 0.20 0.20 0.22 0.25 0.29 0.26 0.21 0.23 0.27 0.30 0.29 0.24 0.18 0.15 0.15 0.15 0.14 0.14 0.14 0.15 0.18 0.20 0.25 0.33
0.03 0.05 0.09 0.10 0.12 0.15 0.17 0.17 0.18 0.21 0.23 0.23 0.22 0.21 0.21 0.24 0.25 0.26 0.25 0.21 0.21 0.21 0.21 0.26 0.26 0.20 0.18 0.22 0.26 0.33 0.33 0.23 0.18 0.19 0.20 0.17 0.14 0.13 0.14 0.16 0.17 0.22 0.28
0.06 0.11 0.14 0.15 0.16 0.18 0.21 0.21 0.21 0.23 0.24 0.25 0.23 0.23 0.23 0.23 0.23 0.22 0.22 0.22 0.23 0.21 0.21 0.24 0.24 0.21 0.20 0.22 0.22 0.24 0.25 0.23 0.24 0.24 0.22 0.23 0.19 0.15 0.16 0.18 0.18 0.21 0.26
0.10 0.13 0.16 0.19 0.22 0.24 0.26 0.26 0.25 0.24 0.25 0.26 0.25 0.25 0.23 0.22 0.21 0.19 0.18 0.19 0.20 0.19 0.19 0.21 0.23 0.24 0.23 0.22 0.23 0.24 0.22 0.23 0.28 0.35 0.39 0.35 0.26 0.20 0.20 0.21 0.20 0.20 0.24
0.11 0.14 0.17 0.21 0.25 0.29 0.33 0.35 0.31 0.28 0.29 0.28 0.27 0.26 0.26 0.25 0.22 0.20 0.19 0.20 0.21 0.20 0.18 0.18 0.20 0.24 0.24 0.24 0.23 0.23 0.25 0.26 0.28 0.33 0.43 0.45 0.33 0.23 0.22 0.25 0.22 0.23 0.25